Wind_Speed
37 37 37 37 38 38 38 38 38 37 36 37 37 38 38 38 39 40 40 41 42 42 42 42 42 41 41 40 40 40 40 41 41 41 40 38 37 37
39 39 39 39 39 39 39 39 39 39 38 37 38 38 39 39 40 40 41 42 41 41 41 41 41 41 41 41 41 41 42 41 40 39 39 39 38 38
41 41 41 40 40 41 41 40 40 40 40 39 39 40 40 40 40 41 41 41 41 41 40 40 40 41 41 40 41 41 41 41 39 39 39 39 39 39
43 43 43 42 42 41 41 41 41 41 41 41 40 40 41 40 41 41 41 42 42 41 42 41 41 40 40 40 40 40 40 39 39 38 38 38 38 39
44 44 44 43 42 42 41 41 41 42 42 42 42 42 42 41 41 41 42 42 42 42 42 42 41 40 40 41 40 39 39 39 38 38 38 38 38 39
44 44 44 43 43 42 42 42 42 42 42 43 43 42 42 42 42 42 42 42 42 42 41 41 40 40 41 40 40 39 38 38 38 38 38 39 39 39
44 44 44 44 44 44 44 44 44 44 43 43 43 43 42 42 43 43 43 43 42 42 41 41 41 40 40 40 40 39 39 38 38 38 38 39 39 39
45 45 45 45 45 45 46 46 45 45 44 44 43 43 43 43 43 43 43 43 43 42 42 42 41 41 41 40 40 39 39 38 38 38 39 39 39 39
47 47 47 47 47 47 47 47 47 46 46 45 44 43 44 44 44 43 43 43 43 42 42 42 42 41 41 40 40 40 40 40 39 39 39 39 39 39
49 49 49 48 48 49 49 48 48 47 46 46 45 44 44 44 44 44 44 44 43 43 43 43 43 42 41 41 40 40 40 40 40 40 40 40 40 40
51 51 51 50 50 51 51 50 49 48 47 47 46 46 45 45 44 44 44 44 44 44 44 43 43 42 42 42 41 41 41 41 41 42 41 41 42 41
52 52 52 52 52 53 53 51 50 49 48 48 47 46 46 46 46 45 44 44 44 44 44 43 43 43 43 42 43 43 42 43 43 43 43 42 42 42
54 54 53 53 53 53 53 52 51 50 49 48 48 47 47 47 46 45 45 44 44 43 43 43 43 43 43 42 42 43 43 43 43 43 43 42 42 42
55 54 54 54 53 53 52 52 51 51 50 49 48 48 47 47 46 45 45 44 44 44 44 43 43 42 42 42 42 42 42 43 43 42 42 41 41 41
54 53 53 53 52 52 51 51 51 50 50 49 48 47 47 47 46 45 45 45 44 43 43 43 42 42 41 41 41 41 41 41 41 41 40 40 40 40
52 52 51 50 50 50 50 50 50 50 49 49 48 46 46 46 45 45 44 44 43 42 42 41 41 41 40 40 39 39 39 39 39 39 38 38 39 39
50 49 48 47 47 47 47 47 47 47 48 47 46 45 45 44 44 43 43 42 42 41 40 40 40 39 38 38 37 37 37 37 37 37 37 37 37 37
47 46 45 45 44 44 44 44 44 44 45 45 45 44 44 43 42 41 41 41 40 40 39 39 38 37 37 36 36 36 36 36 36 36 36 36 35 35
44 43 42 42 42 42 42 42 41 41 41 42 42 42 41 41 41 40 39 38 38 38 37 37 36 36 35 35 34 34 35 34 34 34 34 33 33 32
41 41 40 40 40 39 39 39 39 39 39 39 39 39 39 39 39 38 37 36 36 36 35 35 35 34 34 33 33 33 33 33 33 33 32 32 31 31
40 39 39 39 39 38 38 38 37 37 37 36 36 37 37 36 36 35 35 34 34 34 33 33 33 33 32 32 31 31 31 32 32 31 31 31 31 31
39 39 39 38 38 37 37 36 35 35 35 35 35 34 34 34 33 33 33 32 32 32 31 31 31 31 31 31 30 30 30 30 30 30 30 30 30 29
39 38 38 37 37 36 35 34 33 33 33 33 33 32 32 32 31 31 31 31 31 30 30 29 29 30 30 30 29 29 29 29 29 29 29 29 28 28
Wind_Direction
272 272 274 274 275 275 276 276 276 276 275 274 273 272 273 273 273 275 275 277 278 280 281 281 282 281 282 283 283 284 285 284 282 280 279 278 278 278
272 272 273 274 274 275 276 275 275 275 274 274 273 272 273 273 274 275 275 278 279 281 282 281 281 281 282 283 283 284 285 284 282 280 278 276 276 277
272 273 273 274 275 275 274 274 274 275 275 274 274 274 274 274 274 275 276 278 279 280 281 281 281 281 282 283 285 284 284 283 281 280 277 276 275 275
272 272 273 274 274 274 273 272 273 274 275 274 275 275 275 275 275 275 276 277 278 279 279 280 280 281 281 283 284 283 284 284 282 280 278 277 276 275
272 272 272 273 273 273 273 273 273 274 274 274 274 274 275 274 274 275 276 276 278 278 278 279 279 281 282 283 283 283 283 283 282 280 278 278 278 276
271 272 272 273 273 273 273 273 273 273 274 274 274 274 274 273 274 275 275 276 277 278 278 278 278 280 281 282 282 283 282 282 281 280 279 279 278 279
272 272 272 272 272 272 272 273 273 273 273 274 274 274 274 274 274 275 275 276 277 277 277 277 278 279 280 280 281 282 281 281 281 280 279 279 279 279
273 273 272 272 271 271 272 272 272 273 273 273 273 273 273 274 275 275 275 275 276 276 276 277 278 278 280 279 279 280 280 279 280 280 279 278 278 278
273 273 272 272 271 271 271 271 271 272 272 273 272 272 273 274 274 274 274 274 275 275 276 277 278 278 279 280 279 279 279 279 279 280 280 280 280 279
272 272 272 271 271 270 270 270 270 270 271 271 271 272 272 273 273 273 273 273 274 275 276 277 277 277 278 279 279 279 279 279 279 280 280 280 281 281
272 271 271 270 270 270 269 269 269 269 269 269 270 270 271 272 272 273 273 273 274 275 275 276 276 276 277 277 278 278 278 278 279 280 280 280 280 281
271 271 270 270 270 269 268 267 267 267 267 267 267 268 269 271 271 272 272 273 274 275 276 276 276 276 277 277 277 278 278 279 279 280 281 281 281 280
271 270 270 270 270 269 267 266 266 265 265 266 267 268 268 270 271 271 272 272 273 275 275 275 276 277 277 277 277 278 278 280 280 280 280 280 280 280
271 271 270 270 269 268 266 265 265 265 265 265 266 267 267 268 269 270 271 271 271 273 274 275 276 276 277 278 278 278 280 280 280 280 280 279 279 280
271 271 270 269 268 267 265 264 264 264 265 265 266 266 266 266 268 269 270 270 271 272 273 274 275 276 277 278 279 280 281 281 280 280 280 278 279 280
271 270 269 268 267 266 264 263 263 263 264 264 264 265 265 266 267 268 269 269 270 272 273 274 275 276 276 277 279 280 281 281 280 280 280 279 279 280
270 269 268 267 267 266 264 263 262 262 262 263 263 263 264 265 266 267 268 269 270 271 272 273 275 276 276 278 279 280 281 281 281 281 280 280 280 281
268 268 267 266 266 265 263 262 262 262 262 262 262 262 262 263 265 266 267 268 269 270 271 272 274 275 276 277 279 280 282 283 282 282 282 281 281 282
267 267 267 266 265 264 263 262 261 262 262 261 261 261 262 262 264 265 266 267 268 268 269 270 272 274 275 275 277 279 281 283 283 283 283 282 282 282
267 266 266 266 265 264 262 262 261 261 261 261 261 261 262 263 263 264 265 266 267 268 268 269 271 273 275 276 277 279 281 282 282 282 282 282 282 282
265 266 266 265 264 263 262 262 262 261 260 260 260 260 261 262 262 262 264 265 266 266 267 268 270 272 274 275 277 278 280 282 284 284 283 283 283 282
265 265 265 264 263 262 261 261 260 259 258 258 258 259 259 260 260 261 263 264 265 265 266 268 269 271 273 275 278 279 280 282 285 285 284 284 284 283
265 264 263 263 261 260 259 258 257 257 256 256 256 257 257 258 259 260 261 262 263 264 266 267 269 271 273 275 278 279 280 282 284 284 285 285 284 284
Height
5711 5710 5710 5709 5708 5707 5706 5705 5705 5704 5704 5703 5701 5701 5700 5699 5699 5698 5697 5696 5695 5694 5692 5691 5689 5687 5685 5683 5681 5679 5677 5674 5672 5671 5669 5668 5667 5666
5701 5701 5700 5700 5699 5698 5697 5696 5695 5694 5694 5694 5692 5691 5690 5690 5689 5688 5687 5686 5685 5683 5682 5680 5678 5677 5675 5673 5671 5669 5667 5664 5662 5660 5659 5658 5657 5656
5691 5690 5690 5689 5689 5688 5687 5686 5685 5684 5684 5684 5682 5681 5680 5680 5679 5678 5677 5675 5674 5672 5671 5669 5668 5666 5664 5662 5660 5658 5656 5654 5652 5650 5648 5647 5646 5645
5680 5679 5679 5678 5678 5677 5677 5676 5675 5674 5673 5673 5672 5671 5670 5669 5668 5667 5666 5665 5664 5662 5660 5659 5657 5656 5654 5652 5650 5648 5645 5643 5641 5639 5638 5636 5635 5634
5668 5667 5667 5667 5667 5666 5666 5665 5664 5663 5662 5662 5661 5660 5659 5658 5657 5656 5655 5654 5653 5651 5649 5648 5646 5645 5643 5641 5639 5637 5635 5633 5631 5629 5627 5626 5625 5624
5655 5655 5655 5655 5655 5654 5654 5654 5653 5652 5651 5650 5649 5649 5648 5647 5646 5645 5644 5643 5642 5640 5638 5637 5635 5634 5632 5630 5629 5627 5625 5623 5621 5619 5617 5616 5614 5613
5643 5643 5642 5642 5642 5642 5642 5642 5641 5640 5639 5638 5637 5637 5636 5635 5635 5634 5633 5631 5630 5629 5627 5626 5625 5623 5621 5619 5617 5616 5614 5612 5610 5608 5607 5605 5604 5602
5630 5629 5629 5629 5629 5629 5629 5628 5628 5627 5627 5626 5625 5625 5624 5624 5623 5622 5620 5620 5619 5618 5616 5615 5613 5611 5610 5608 5606 5604 5602 5601 5599 5598 5596 5595 5593 5591
5616 5615 5615 5615 5615 5615 5615 5615 5615 5614 5614 5613 5613 5613 5612 5611 5610 5610 5608 5607 5607 5606 5604 5603 5601 5600 5598 5596 5595 5593 5591 5589 5588 5586 5585 5583 5581 5580
5601 5601 5601 5601 5600 5600 5600 5601 5601 5601 5600 5600 5601 5600 5599 5598 5597 5597 5595 5595 5594 5593 5592 5591 5590 5588 5586 5585 5583 5581 5580 5578 5576 5575 5573 5571 5570 5568
5586 5586 5585 5585 5585 5585 5585 5586 5586 5587 5586 5586 5587 5586 5586 5585 5584 5584 5583 5582 5582 5581 5579 5578 5577 5576 5574 5573 5571 5569 5567 5566 5564 5562 5561 5559 5557 5555
5570 5570 5569 5569 5569 5568 5569 5570 5571 5572 5572 5572 5572 5573 5572 5572 5571 5571 5570 5569 5569 5568 5567 5566 5564 5563 5563 5561 5559 5557 5555 5553 5552 5550 5548 5546 5544 5542
5553 5553 5553 5553 5552 5552 5552 5554 5555 5556 5557 5557 5558 5558 5558 5558 5558 5557 5557 5556 5556 5555 5555 5553 5552 5550 5549 5549 5547 5545 5543 5541 5539 5537 5535 5533 5531 5529
5536 5536 5536 5536 5535 5535 5536 5538 5539 5540 5541 5542 5543 5544 5544 5544 5544 5543 5543 5543 5542 5542 5541 5540 5539 5537 5536 5535 5534 5533 5531 5528 5526 5524 5522 5521 5519 5517
5518 5518 5518 5518 5518 5519 5520 5521 5523 5524 5526 5527 5528 5529 5529 5529 5529 5529 5529 5529 5529 5528 5527 5526 5525 5524 5523 5522 5521 5520 5518 5516 5513 5511 5510 5508 5506 5504
5501 5501 5501 5501 5502 5503 5504 5505 5507 5508 5510 5512 5513 5514 5515 5515 5515 5515 5516 5515 5516 5515 5514 5513 5512 5511 5510 5509 5508 5507 5505 5504 5502 5499 5497 5496 5494 5492
5484 5484 5484 5485 5486 5487 5488 5489 5491 5493 5495 5497 5498 5499 5500 5501 5502 5502 5502 5502 5503 5503 5502 5501 5499 5499 5498 5497 5496 5495 5493 5491 5489 5487 5485 5484 5482 5480
5467 5468 5469 5470 5471 5472 5474 5475 5477 5479 5480 5482 5483 5485 5486 5487 5488 5489 5489 5489 5490 5490 5489 5488 5488 5487 5487 5486 5485 5483 5482 5480 5478 5476 5474 5473 5471 5469
5453 5454 5455 5456 5457 5458 5460 5462 5464 5465 5466 5468 5470 5472 5473 5474 5475 5476 5477 5477 5477 5477 5477 5477 5476 5476 5476 5475 5474 5472 5470 5469 5467 5465 5463 5462 5460 5459
5440 5440 5442 5442 5444 5445 5447 5448 5450 5452 5454 5455 5457 5459 5460 5461 5463 5464 5465 5465 5465 5466 5466 5466 5465 5465 5464 5464 5463 5462 5459 5458 5456 5455 5453 5452 5450 5448
5427 5428 5429 5430 5431 5432 5434 5436 5437 5439 5441 5443 5445 5446 5448 5449 5451 5452 5453 5454 5454 5455 5455 5455 5455 5454 5453 5453 5453 5452 5450 5447 5446 5444 5443 5441 5440 5438
5414 5415 5416 5417 5419 5420 5422 5424 5426 5427 5429 5431 5433 5435 5436 5438 5440 5441 5442 5443 5444 5444 5445 5445 5445 5444 5444 5443 5442 5442 5441 5439 5436 5434 5432 5431 5429 5428
5402 5403 5404 5405 5407 5408 5410 5412 5415 5417 5418 5420 5422 5424 5426 5428 5429 5430 5432 5433 5433 5434 5435 5435 5435 5435 5434 5433 5433 5432 5431 5429 5428 5426 5424 5422 5420 5419